[[{"header":{"parameterUnit":"m.s-1","parameterCategory":1,"la1":30.2991,"la2":30.254,"lo1":-89.0895,"lo2":-89.0444,"dy":0.0017,"dx":0.0017,"nx":28,"ny":28,"refTime":"2025-11-28T09:00:00:Z","depth":0,"parameterNumber":2,"parameterNumberName":"U-component_of_WINDS"},"data":[0,0,0,0,0,0,0,0,0,0,0,0,0,0,0,0,0,0,0,0,0,0,0,0,0,0,0,0,0,0,0,0,0,0,0,0,0,0,0,0,0,0,0,0,0,0,0,0,0,0,0,0,0,0,0,0,0,0,-0.281,-0.2811,0,-0.2851,-0.2852,-0.2852,-0.2807,-0.2805,-0.2804,-0.2802,-0.2847,-0.285,-0.2853,0,0,0,0,0,0,0,0,0,0,0,0,0,-0.2695,-0.2697,-0.281,-0.2811,-0.2811,-0.2851,-0.2852,-0.2852,-0.2807,-0.2805,-0.2803,-0.2801,-0.2846,-0.2849,-0.2853,0,0,0,0,0,0,0,0,0,0,0,0,0,-0.2742,-0.2698,-0.281,-0.2793,-0.2792,-0.2851,-0.2852,-0.2852,-0.2808,-0.2805,-0.2803,-0.28,-0.2845,-0.2849,-0.2853,-0.2931,0,0,-0.2866,-0.2868,0,0,0,0,0,0,0,0,-0.2739,-0.2746,-0.2795,-0.2795,-0.2794,-0.2821,-0.2827,-0.2879,-0.2808,-0.2802,-0.2802,-0.2799,-0.2841,-0.2845,-0.2859,-0.2933,-0.2935,-0.2867,-0.2869,-0.2871,-0.2872,0,0,0,0,0,0,0,-0.2736,-0.2744,-0.2826,-0.2796,-0.2795,-0.2785,-0.2788,-0.2837,-0.2836,-0.2802,-0.2799,-0.2804,-0.284,-0.2855,-0.2859,-0.2936,-0.2866,-0.287,-0.2873,-0.2874,-0.3076,-0.3079,0,0,0,0,0,0,-0.2734,-0.2741,-0.2825,-0.2828,-0.2759,-0.2789,-0.2793,-0.2815,-0.2835,-0.2835,-0.2807,-0.2802,-0.2849,-0.2854,-0.2861,-0.2954,-0.2871,-0.2875,-0.2877,-0.3073,-0.3077,-0.308,0,0,0,0,0,0,-0.2732,-0.2742,-0.2823,-0.2784,-0.2793,-0.2794,-0.2819,-0.2817,-0.2832,-0.2838,-0.2838,-0.2822,-0.2847,-0.2855,-0.2914,-0.2955,-0.2877,-0.2881,-0.307,-0.3074,-0.3078,-0.3141,0,0,0,0,0,0,-0.2729,-0.2741,-0.2771,-0.2785,-0.2795,-0.2876,-0.2821,-0.282,-0.2839,-0.2834,-0.2852,-0.2853,-0.2846,-0.2908,-0.2918,-0.2959,-0.2884,-0.3066,-0.3072,-0.3077,-0.3135,-0.3146,-0.3156,0,0,0,0,0,-0.2725,-0.2787,-0.2772,-0.2783,-0.2832,-0.2878,-0.2884,-0.2873,-0.2842,-0.2872,-0.2876,-0.2853,-0.2948,-0.2914,-0.2925,-0.2969,-0.3064,-0.307,-0.3077,-0.313,-0.3144,-0.3156,0,0,0,0,0,0,-0.278,-0.2789,-0.2773,-0.2841,-0.2859,-0.287,-0.2908,-0.2889,-0.2916,-0.291,-0.2896,-0.2901,-0.2964,-0.2971,-0.2933,-0.3045,-0.3001,-0.301,-0.3038,-0.3051,-0.3062,-0.306,-0.2887,0,0,0,0,0,-0.28,-0.2835,-0.2841,-0.2902,-0.2911,-0.2908,-0.2927,-0.2917,-0.2935,-0.2943,-0.2951,-0.2971,-0.3005,-0.3028,-0.306,-0.3134,-0.3139,-0.317,-0.318,-0.3189,-0.3198,-0.3239,-0.3253,-0.3101,-0.3101,-0.3101,0,0,-0.2842,-0.2851,-0.2875,-0.2913,-0.2925,-0.2964,-0.2915,-0.2957,-0.2986,-0.295,-0.3006,-0.3012,-0.3033,-0.31,-0.313,-0.3109,-0.324,-0.3197,-0.3204,-0.3208,-0.3247,-0.3261,-0.3274,-0.3105,-0.3104,-0.3104,0,0,-0.2939,-0.2948,-0.3,-0.3013,-0.3032,-0.3029,-0.3041,-0.3055,-0.3057,-0.3113,-0.3087,-0.312,-0.318,-0.3196,-0.3212,-0.3312,-0.3292,-0.3322,-0.338,-0.342,-0.3432,-0.3442,-0.348,-0.3493,-0.3331,-0.3331,-0.3331,0,-0.299,-0.3045,-0.3029,-0.3074,-0.3092,-0.3058,-0.3111,-0.3125,-0.3154,-0.3167,-0.3142,-0.3215,-0.3226,-0.3297,-0.3322,-0.3335,-0.3349,-0.3322,-0.3431,-0.3442,-0.3451,-0.3487,-0.3501,-0.3334,-0.3334,-0.3334,-0.3333,0,-0.3107,-0.3146,-0.3185,-0.3213,-0.3235,-0.3283,-0.3275,-0.3299,-0.3286,-0.3286,-0.3343,-0.3355,-0.3389,-0.3404,-0.3393,-0.3474,-0.346,-0.3433,-0.3389,-0.347,-0.3503,-0.3517,-0.334,-0.3339,-0.3337,-0.3336,0,0,-0.3244,-0.3259,-0.3275,-0.3287,-0.3304,-0.3334,-0.3381,-0.3412,-0.3434,-0.3454,-0.3494,-0.3543,-0.3518,-0.3536,-0.3525,-0.356,-0.3641,-0.3529,-0.3529,-0.3551,-0.3732,-0.3755,-0.3771,-0.3626,-0.3628,-0.363,-0.3731,0,-0.3342,-0.3422,-0.3408,-0.3487,-0.3523,-0.3491,-0.3531,-0.3547,-0.3547,-0.3578,-0.3578,-0.3615,-0.3578,-0.3589,-0.3621,-0.3624,-0.3677,-0.3616,-0.3665,-0.3667,-0.3664,-0.3788,-0.3812,-0.3907,-0.3744,-0.3746,-0.3748,0,-0.3469,-0.3493,-0.3575,-0.3586,-0.36,-0.3637,-0.3665,-0.3694,-0.3711,-0.3709,-0.3728,-0.371,-0.3757,-0.371,-0.3775,-0.3734,-0.3752,-0.3756,-0.3759,-0.3766,-0.3715,-0.3801,-0.3937,-0.3952,-0.3768,-0.3766,-0.3765,0,-0.3563,-0.3615,-0.3671,-0.3682,-0.3696,-0.3722,-0.3729,-0.3743,-0.3763,-0.3787,-0.38,-0.3829,-0.3846,-0.3869,-0.386,-0.3827,-0.3928,-0.388,-0.3929,-0.3929,-0.3955,-0.3954,-0.4098,-0.3962,-0.3961,-0.3961,-0.3961,0,-0.3677,-0.3729,-0.3713,-0.3748,-0.3805,-0.3788,-0.3845,-0.3848,-0.386,-0.3895,-0.3868,-0.3902,-0.3887,-0.3919,-0.3912,-0.3968,-0.3975,-0.3976,-0.3974,-0.398,-0.398,-0.3994,-0.3989,-0.3965,-0.3964,-0.3963,-0.3963,0,-0.3793,-0.3784,-0.3843,-0.385,-0.3853,-0.3896,-0.3902,-0.3935,-0.3931,-0.3976,-0.3986,-0.3982,-0.4019,-0.4011,-0.4052,-0.4047,-0.4118,-0.4106,-0.4112,-0.4111,-0.4161,-0.4158,-0.4322,-0.4344,-0.4191,-0.4192,-0.4193,0,-0.3868,-0.3907,-0.3917,-0.3939,-0.3947,-0.3982,-0.4001,-0.3985,-0.4007,-0.4027,-0.4058,-0.4092,-0.4119,-0.4179,-0.4181,-0.4212,-0.4202,-0.4258,-0.4207,-0.4212,-0.4206,-0.4205,-0.421,-0.4269,-0.4271,-0.4272,-0.4273,0,-0.4002,-0.3995,-0.4024,-0.4052,-0.4075,-0.4096,-0.4115,-0.4134,-0.4119,-0.4144,-0.4181,-0.4202,-0.4242,-0.4278,-0.4306,-0.4313,-0.4292,-0.4289,-0.4302,-0.4311,-0.4314,-0.4315,-0.4143,-0.4286,-0.4285,-0.4284,-0.4283,-0.4283,-0.4102,-0.4135,-0.4147,-0.418,-0.4192,-0.421,-0.4241,-0.4241,-0.4271,-0.4302,-0.429,-0.4333,-0.4347,-0.4383,-0.4394,-0.4427,-0.4406,-0.4426,-0.4431,-0.4437,-0.4444,-0.4305,-0.4432,-0.4431,-0.4431,-0.4431,-0.443,0,-0.4237,-0.4242,-0.4273,-0.4299,-0.4325,-0.4299,-0.4318,-0.4342,-0.4379,-0.4394,-0.442,-0.4462,-0.4495,-0.4498,-0.4529,-0.4555,-0.4546,-0.4565,-0.4564,-0.4567,-0.4459,-0.4446,-0.4571,-0.4571,-0.4571,-0.4571,-0.4571,-0.4571,-0.431,-0.4365,-0.436,-0.4421,-0.4426,-0.4467,-0.448,-0.4496,-0.4508,-0.4556,-0.4583,-0.4583,-0.4594,-0.4625,-0.4654,-0.4654,-0.4668,-0.4691,-0.4687,-0.4588,-0.4574,-0.4561,-0.4548,-0.4693,-0.4693,-0.4792,-0.4793,-0.4793]},{"header":{"parameterUnit":"m.s-1","parameterCategory":1,"la1":30.2991,"la2":30.254,"lo1":-89.0895,"lo2":-89.0444,"dy":0.0017,"dx":0.0017,"nx":28,"ny":28,"refTime":"2025-11-28T09:00:00:Z","depth":0,"parameterNumber":3,"parameterNumberName":"V-component_of_WINDS"},"data":[0,0,0,0,0,0,0,0,0,0,0,0,0,0,0,0,0,0,0,0,0,0,0,0,0,0,0,0,0,0,0,0,0,0,0,0,0,0,0,0,0,0,0,0,0,0,0,0,0,0,0,0,0,0,0,0,0,0,-7.3899,-7.39,0,-7.4038,-7.404,-7.4041,-7.3914,-7.3909,-7.3904,-7.3899,-7.4036,-7.4044,-7.4053,0,0,0,0,0,0,0,0,0,0,0,0,0,-7.3518,-7.3525,-7.3899,-7.3901,-7.3902,-7.4038,-7.404,-7.4042,-7.3915,-7.3909,-7.3903,-7.3897,-7.4034,-7.4043,-7.4054,0,0,0,0,0,0,0,0,0,0,0,0,0,-7.3673,-7.3528,-7.3898,-7.3856,-7.3853,-7.4038,-7.404,-7.4042,-7.3917,-7.3909,-7.3901,-7.3894,-7.403,-7.4042,-7.4055,-7.4287,0,0,-7.4094,-7.4099,0,0,0,0,0,0,0,0,-7.3664,-7.3687,-7.386,-7.3859,-7.3857,-7.3951,-7.3956,-7.4124,-7.3919,-7.3892,-7.3899,-7.389,-7.4014,-7.4027,-7.407,-7.4293,-7.4299,-7.4095,-7.4102,-7.4108,-7.4111,0,0,0,0,0,0,0,-7.3654,-7.368,-7.3954,-7.3863,-7.3861,-7.3828,-7.3841,-7.3987,-7.3994,-7.3894,-7.3885,-7.3904,-7.4011,-7.4058,-7.4072,-7.4301,-7.4094,-7.4106,-7.4113,-7.4118,-7.4722,-7.473,0,0,0,0,0,0,-7.3648,-7.3672,-7.3949,-7.3958,-7.374,-7.3841,-7.3856,-7.3929,-7.3992,-7.3995,-7.391,-7.3897,-7.404,-7.4058,-7.4077,-7.4353,-7.4108,-7.412,-7.4127,-7.4713,-7.4724,-7.4733,0,0,0,0,0,0,-7.364,-7.3674,-7.3944,-7.3813,-7.3845,-7.3856,-7.3938,-7.3935,-7.3982,-7.4005,-7.4005,-7.3957,-7.4035,-7.4059,-7.4236,-7.4356,-7.4125,-7.4137,-7.4703,-7.4717,-7.4728,-7.4907,0,0,0,0,0,0,-7.363,-7.3672,-7.3762,-7.3816,-7.3852,-7.4103,-7.3945,-7.3944,-7.4005,-7.399,-7.4049,-7.4051,-7.4031,-7.4218,-7.4249,-7.4369,-7.4147,-7.4693,-7.4709,-7.4724,-7.489,-7.4924,-7.4953,0,0,0,0,0,-7.3617,-7.3805,-7.3767,-7.3801,-7.3964,-7.411,-7.413,-7.4105,-7.4015,-7.4105,-7.4119,-7.4049,-7.4338,-7.4237,-7.4271,-7.4397,-7.4685,-7.4705,-7.4723,-7.4876,-7.4918,-7.4952,0,0,0,0,0,0,-7.3762,-7.3811,-7.3769,-7.3981,-7.4043,-7.4088,-7.42,-7.4149,-7.4236,-7.4218,-7.418,-7.4195,-7.4382,-7.4407,-7.4294,-7.4625,-7.4497,-7.4523,-7.4602,-7.4641,-7.4672,-7.4662,-7.4157,0,0,0,0,0,-7.3819,-7.3935,-7.3971,-7.4154,-7.4187,-7.4189,-7.4251,-7.4227,-7.4288,-7.4313,-7.434,-7.4401,-7.4505,-7.4574,-7.4671,-7.4893,-7.4904,-7.4996,-7.5028,-7.5053,-7.5077,-7.5196,-7.5238,-7.4795,-7.4795,-7.4795,0,0,-7.3937,-7.3978,-7.4053,-7.4184,-7.4229,-7.4348,-7.4211,-7.4343,-7.4431,-7.4332,-7.4502,-7.4524,-7.4589,-7.479,-7.488,-7.4817,-7.5202,-7.5078,-7.5098,-7.5107,-7.522,-7.5262,-7.5299,-7.4808,-7.4806,-7.4804,0,0,-7.4213,-7.4257,-7.4414,-7.4463,-7.4533,-7.4534,-7.4572,-7.4626,-7.4638,-7.4808,-7.4736,-7.4839,-7.502,-7.5069,-7.5118,-7.5415,-7.5354,-7.5448,-7.5611,-7.5728,-7.5763,-7.5794,-7.59,-7.5938,-7.5471,-7.5472,-7.5472,0,-7.4351,-7.453,-7.4501,-7.464,-7.4699,-7.4617,-7.4776,-7.4823,-7.4921,-7.4964,-7.4892,-7.5117,-7.5155,-7.5367,-7.544,-7.5482,-7.5523,-7.5441,-7.5761,-7.5791,-7.5819,-7.592,-7.596,-7.5482,-7.5481,-7.548,-7.5479,0,-7.4695,-7.4821,-7.4939,-7.5039,-7.5111,-7.5259,-7.5251,-7.5328,-7.5298,-7.5305,-7.5479,-7.5522,-7.5627,-7.5675,-7.5645,-7.5883,-7.5842,-7.5766,-7.5637,-7.5873,-7.5967,-7.6005,-7.5498,-7.5494,-7.5491,-7.5488,0,0,-7.5066,-7.5149,-7.5193,-7.5238,-7.531,-7.5406,-7.5549,-7.5654,-7.5721,-7.5791,-7.591,-7.6065,-7.5997,-7.6052,-7.6027,-7.613,-7.6363,-7.6041,-7.6042,-7.61,-7.6627,-7.6684,-7.6729,-7.6323,-7.633,-7.6336,-7.6622,0,-7.5345,-7.5597,-7.5576,-7.5814,-7.5929,-7.5854,-7.5979,-7.6036,-7.6047,-7.6145,-7.6156,-7.6267,-7.6167,-7.6201,-7.6299,-7.6314,-7.6468,-7.6293,-7.6432,-7.6438,-7.6419,-7.6778,-7.6838,-7.7106,-7.6658,-7.6665,-7.6669,0,-7.5704,-7.579,-7.6041,-7.6097,-7.6144,-7.6258,-7.6352,-7.6447,-7.651,-7.6511,-7.6575,-7.6533,-7.6676,-7.6544,-7.674,-7.6622,-7.6677,-7.6693,-7.6703,-7.6715,-7.6568,-7.68,-7.719,-7.7231,-7.6727,-7.6722,-7.6718,0,-7.595,-7.6128,-7.6301,-7.6341,-7.6411,-7.6492,-7.6525,-7.6581,-7.6645,-7.6727,-7.6769,-7.6866,-7.6919,-7.6994,-7.6979,-7.6885,-7.718,-7.7047,-7.7183,-7.7184,-7.7248,-7.7245,-7.7654,-7.7285,-7.7285,-7.7284,-7.7283,0,-7.6264,-7.642,-7.6413,-7.6519,-7.6691,-7.6665,-7.6836,-7.6858,-7.6909,-7.7017,-7.6957,-7.7059,-7.7033,-7.7134,-7.7123,-7.7288,-7.7312,-7.7315,-7.7311,-7.7321,-7.7321,-7.7357,-7.7338,-7.7294,-7.7292,-7.729,-7.7288,0,-7.6567,-7.6569,-7.6752,-7.6804,-7.6821,-7.6946,-7.6989,-7.7089,-7.7095,-7.7233,-7.7264,-7.7274,-7.739,-7.7383,-7.7513,-7.7505,-7.7709,-7.7682,-7.7688,-7.7682,-7.782,-7.7807,-7.8266,-7.8325,-7.7918,-7.7922,-7.7926,0,-7.6768,-7.6886,-7.6952,-7.7022,-7.706,-7.7172,-7.7239,-7.7217,-7.7289,-7.737,-7.746,-7.7571,-7.7659,-7.7848,-7.7866,-7.7965,-7.794,-7.8094,-7.7954,-7.7962,-7.7942,-7.7936,-7.7947,-7.8122,-7.8126,-7.813,-7.8133,0,-7.7123,-7.7118,-7.7218,-7.7318,-7.74,-7.7477,-7.7548,-7.7607,-7.7593,-7.7676,-7.7796,-7.7864,-7.7999,-7.8109,-7.8205,-7.8235,-7.8183,-7.8177,-7.8214,-7.8226,-7.8225,-7.8228,-7.7763,-7.8166,-7.8163,-7.8161,-7.8159,-7.8157,-7.7381,-7.7483,-7.7546,-7.7659,-7.771,-7.7778,-7.7875,-7.7895,-7.7995,-7.8104,-7.8085,-7.8219,-7.8278,-7.8401,-7.8442,-7.8545,-7.849,-7.8543,-7.8557,-7.857,-7.8586,-7.8209,-7.8562,-7.8561,-7.856,-7.856,-7.8559,0,-7.7734,-7.7771,-7.7875,-7.7977,-7.8066,-7.801,-7.8086,-7.8163,-7.8282,-7.8344,-7.8432,-7.857,-7.8677,-7.8704,-7.8807,-7.8885,-7.8863,-7.8913,-7.8906,-7.8915,-7.863,-7.8588,-7.8929,-7.8929,-7.8928,-7.8928,-7.8928,-7.8928,-7.7928,-7.8098,-7.8101,-7.8296,-7.8331,-7.8464,-7.8512,-7.8574,-7.8623,-7.878,-7.887,-7.8888,-7.8935,-7.9042,-7.9138,-7.9142,-7.9183,-7.9243,-7.9238,-7.8971,-7.8934,-7.8899,-7.8859,-7.9252,-7.9252,-7.9514,-7.9516,-7.9518]}]]